Showing default

GOSAT 2, 43672

Orbit data source: Space-Track

GOSAT 2, 43672 is a payload satellite owned by JAXA (JP) in SSO that was launched on Mon, 29 Oct 2018 UTC via an H-IIA 202 launch vehicle from the Tanegashima Space Center (TNSTA). Payload-class satellites include a variety of spacecraft equipped with specific instruments for various scientific and technological missions. These include communications satellites like Starlink; space stations such as the ISS; scientific satellites like the Hubble; Earth observation satellites from companies like Planet Labs, Umbra, and HawkEye 360; GPS; miniature CubeSats for education and research; and military/defense satellites.

Loading next visibility...
Identifier
43672, 2018-084B
Orbit
SSO
Country
Flag of JPJP / JPN
Related business
Manufacturer
MELCO
Mission
Operational Civil Science
Bus & Motor
GOSAT, AOCS
Mass
1,750 kg wet, ~1,700 kg dry
Launch date (UTC)
2018-10-29 (8 years ago)
Launch vehicle
H-IIA 202
Launch site
Tanegashima Space Center (TNSTA)
Object type
Payload
Rocket body
Debris
Shape & HBR
Box + 2 Pan, 8.4 m
Radar Cross Section
20.392 m², Large (>1 m²)

Expand to show TLE details & history
Last TLE update: 4 hours ago

TLE from 4 hours ago
0 GOSAT 2
1 43672U 18084B   26125.28274549 -.00000101  00000-0 -57844-5 0  9997
2 43672  97.8756 237.3156 0001262  95.2538 264.8820 14.84225628407199
Epoch: 2026-05-05T06:47Z
TLE epoch observation values (Epoch: 2026-05-05T06:47:09.210Z)
Latitude
-0.00005°
Longitude
-87.63259°
Altitude
619.124 km
Speed
7.549 km/s
True Right ascension
15h 49m 15s
True Declination
0° 00' 00"
Sunlit
Object was in full shadow at epoch
Visualization orbit readout
Latitude
Unknown
Longitude
Unknown
Altitude
Unknown
Speed
Unknown
Apparent Right ascension
Unknown
Apparent Declination
Unknown
Sunlit
N/A
Visualization observer readout
Local Sidereal Time
18:45:29
Azimuth
Unknown
Elevation
Unknown
Doppler factor
Unknown
Orbital elements
Apogee altitude
613.934 km
Perigee altitude
612.169 km
Semi-major axis
6,991.189 km
Eccentricity
0.00013
Inclination
97.8756°
RAAN
237.3156°
Arg. of periapsis
95.2538°
True anomaly
264.8676°
Mean anomaly
264.882°
Eccentric anomaly
264.8748°
Mean motion
3.71293 °/min
Orbital period
96.96 mins
BSTAR
-0.0000057844
Loading maneuver chart data...
Computing Atmospheric mass density...

Documentation

Showing up to 5 results
|